Regional Weather Roundup
Issued by NWS Charleston, WV

Home | Current Version | Previous Version | Text Only | Print | Product List | Glossary Off
Versions: 1 2 3 4 5 6 7 8 9 10 11 12 13 14 15 16 17 18 19 20 21 22 23 24 25 26 27 28 29 30 31 32 33 34 35 36 37 38 39 40 41 42 43 44 45 46 47 48 49 50

000
ASUS41 KRLX 031710
RWRRLX
West Virginia Regional Weather Roundup
National Weather Service Charleston WV
100 PM EDT FRI JUL 03 2015

Note: "fair" indicates few or no clouds below 12,000 feet with no
significant weather and/or obstructions to visibility.

WVZ003-031800-
Northern Panhandle of West Virginia

CITY           SKY/WX    TMP DP  RH WIND       PRES   REMARKS
WHEELING       PTSUNNY   76  59  55 E8        29.95S
$$

WVZ009-031800-
Northwest West Virginia

CITY           SKY/WX    TMP DP  RH WIND       PRES   REMARKS
PARKERSBURG    CLOUDY    76  61  59 E6        29.94S
$$

WVZ006-031800-
Western West Virginia

CITY           SKY/WX    TMP DP  RH WIND       PRES   REMARKS
HUNTINGTON     CLOUDY    74  69  85 S3        29.88S
$$

WVZ015-031800-
West Central West Virginia

CITY           SKY/WX    TMP DP  RH WIND       PRES   REMARKS
CHARLESTON     CLOUDY    76  67  73 S5        29.90R
$$

WVZ022-031-031800-
North Central West Virginia

CITY           SKY/WX    TMP DP  RH WIND       PRES   REMARKS
CLARKSBURG     CLOUDY    76  63  64 SE6       29.93F
MORGANTOWN     CLOUDY    79  57  46 E5        29.95F
$$

WVZ025-035-042-045-031800-
Southern West Virginia

CITY           SKY/WX    TMP DP  RH WIND       PRES   REMARKS
BECKLEY        CLOUDY    69  64  84 SE10      30.00R
LOGAN          PTSUNNY   72  68  88 CALM      29.90F
BLUEFIELD      CLOUDY    71  64  78 S8        30.02F
LEWISBURG      CLOUDY    67  63  86 SE6       30.02R
$$

WVZ047-031800-
Northern Mountains of West Virginia

CITY           SKY/WX    TMP DP  RH WIND       PRES   REMARKS
ELKINS         CLOUDY    72  59  63 SE7       29.99R
$$

WVZ052-031800-
Eastern Panhandle of West Virginia

CITY           SKY/WX    TMP DP  RH WIND       PRES   REMARKS
MARTINSBURG    PTSUNNY   75  65  70 VRB3      30.00S
PETERSBURG     CLOUDY    76  59  57 SE8       29.99S
$$



USA.gov is the U.S. government's official web portal to all federal, state and local government web resources and services.